This is the latest recevied weather packets stored in our database for station/object IW2DGQ-3. If no packets are shown the sender has not sent any weather packets the latest 10 day(s).
| Time | Temp. | Humidity | Pressure | Rain* | Wind** | Luminosity | Snow |
|---|---|---|---|---|---|---|---|
| 1787780401 | 24.44° C | 74% | 1017.9 hPa | - | - | - | - |
| 1787779200 | 25° C | 73% | 1017.5 hPa | - | - | - | - |
| 1787778000 | 25° C | 72% | 1017.4 hPa | - | - | - | - |
| 1787776800 | 25.56° C | 71% | 1017.1 hPa | - | - | - | - |
| 1787775599 | 26.11° C | 69% | 1017.1 hPa | - | - | - | - |
| 1787774399 | 26.11° C | 67% | 1017 hPa | - | - | - | - |
| 1787773199 | 26.67° C | 65% | 1017.1 hPa | - | - | - | - |
| 1787771998 | 27.22° C | 60% | 1017.3 hPa | - | - | - | - |
| 1787770798 | 27.78° C | 58% | 1017.1 hPa | - | - | - | - |
| 1787769598 | 27.78° C | 57% | 1016.7 hPa | - | - | - | - |
| 1787768398 | 28.33° C | 56% | 1016.5 hPa | - | - | - | - |
| 1787767197 | 28.33° C | 55% | 1015.7 hPa | - | - | - | - |
| 1787765997 | 28.89° C | 53% | 1015.8 hPa | - | - | - | - |
| 1787764797 | 30° C | 52% | 1015.9 hPa | - | - | - | - |
| 1787763596 | 30° C | 51% | 1016.2 hPa | - | - | - | - |
| 1787762396 | 31.11° C | 50% | 1015.9 hPa | - | - | - | - |
| 1787761196 | 31.11° C | 49% | 1016.1 hPa | - | - | - | - |
| 1787759995 | 31.67° C | 48% | 1016.3 hPa | - | - | - | - |
| 1787758795 | 31.67° C | 48% | 1016.1 hPa | - | - | - | - |
| 1787757595 | 31.67° C | 48% | 1016.3 hPa | - | - | - | - |
| 1787756394 | 32.22° C | 47% | 1016.5 hPa | - | - | - | - |
| 1787755194 | 33.33° C | 47% | 1016.4 hPa | - | - | - | - |
| 1787753994 | 32.78° C | 48% | 1016.5 hPa | - | - | - | - |
| 1787752793 | 33.33° C | 47% | 1016.5 hPa | - | - | - | - |
| 1787751593 | 33.89° C | 48% | 1016.7 hPa | - | - | - | - |
* Rain since midnight (hover to see other rain measurements)
** Current wind speed in m/s (hover to see current wind gust speed)